Project,Study,Ord_Occ,Event_Num,Cast_ID,Date_Time_UTC,Date_Time_PST,Lat_Dec,Lon_Dec,Sta_ID,Line,Sta,Depth,Pressure,PrQ,Temp1,Temp1Q,Temp2,Temp2Q,TempAve,Salt1,Salt1Q,Salt1_Corr,Salt2,Salt2Q,Salt2_Corr,SaltAve_Corr,Ox1,Ox1Q,Ox1_CruiseCorr,Ox1_StaCorr,Ox2,Ox2Q,Ox2_CruiseCorr,Ox2_StaCorr,OxAve_StaCorr,Ox1uM,Ox1uM_CruiseCorr,Ox1uM_StaCorr,Ox2uM,Ox2uM_CruiseCorr,Ox2uM_StaCorr,OxAveuM_StaCorr,FluorV,FluorQ,EstChl_CruiseCorr,EstChl_StaCorr,ISUSV,ISUSQ,EstNO3_CruiseCorr,EstNO3_StaCorr,SigThetaTS1,SigThetaTS1Q,SigThetaTS2,SigThetaTS2Q,BAT,XMiss,TransQ,pH,pHQ,SPAR,SPARQ,PAR,PARQ,PoT1,PoT2,DynHt,SVA,OxSat1,OxSat2,BTL_Depth,BTL_Temp,SaltB,OxB,OxBuM,Chl-a,Phaeo,NO3,NO2,NH4,PO4,SIL
CalCOFI,2101RL,078,,2101_078d,03-Feb-2021 21:04:06,03-Feb-2021 13:04:06,35.21500,-123.77966,070.0 080.0,070.0,080.0,4.000,4.029,,12.1180,,12.1185,,12.1183,32.8199,,32.8257,32.8183,,32.8203,32.8230,5.9691,,6.2472,6.1519,5.8239,,6.1836,6.1437,6.1478,260.110,272.5433,218.4968,253.781,289.6988,217.5990,218.0479,0.0811,,0.4163,, ,, , ,24.8742,,24.8729,,0.9054,79.7433,,,,2.1053E+03,,3.8974E+00,,12.1175,12.1180,-0.0001,306.842,97.534,95.161,4,,32.8160,6.255,273.06,,,,,,,
CalCOFI,2101RL,078,,2101_078d,03-Feb-2021 21:04:08,03-Feb-2021 13:04:08,35.21500,-123.77967,070.0 080.0,070.0,080.0,5.000,5.036,,12.1220,,12.1219,,12.1220,32.8196,,32.8254,32.8182,,32.8202,32.8228,5.9660,,6.2439,6.1487,5.8415,,6.2023,6.1624,6.1556,259.975,272.4020,218.3929,254.551,289.5487,218.2034,218.2982,0.0785,,0.3950,, ,, , ,24.8733,,24.8722,,0.9035,79.7817,,,,2.1070E+03,,3.5383E+00,,12.1213,12.1213,0.0032,306.958,97.491,95.456,,,,,,,,,,,,
CalCOFI,2101RL,078,,2101_078d,03-Feb-2021 21:04:11,03-Feb-2021 13:04:11,35.21500,-123.77970,070.0 080.0,070.0,080.0,6.000,6.044,,12.1221,,12.1221,,12.1221,32.8196,,32.8254,32.8182,,32.8202,32.8228,5.9725,,6.2507,6.1555,5.8534,,6.2149,6.1751,6.1653,260.259,272.6993,218.6115,255.069,289.8645,218.6101,218.6108,0.0741,,0.3590,, ,, , ,24.8732,,24.8722,,0.9035,79.7818,,,,2.1080E+03,,3.2869E+00,,12.1213,12.1213,0.0065,306.985,97.597,95.650,,,,,,,,,,,,
CalCOFI,2101RL,078,,2101_078d,03-Feb-2021 21:04:15,03-Feb-2021 13:04:15,35.21500,-123.77972,070.0 080.0,070.0,080.0,7.000,7.051,,12.1220,,12.1221,,12.1221,32.8195,,32.8253,32.8181,,32.8201,32.8227,5.9584,,6.2360,6.1408,5.8651,,6.2273,6.1876,6.1642,259.645,272.0566,218.1390,255.577,289.1817,219.0089,218.5740,0.0723,,0.3442,, ,, , ,24.8733,,24.8722,,0.9062,79.7282,,,,2.1134E+03,,2.7067E+00,,12.1211,12.1212,0.0097,307.010,97.367,95.841,,,,,,,,,,,,
CalCOFI,2101RL,078,,2101_078d,03-Feb-2021 21:04:17,03-Feb-2021 13:04:17,35.21500,-123.77972,070.0 080.0,070.0,080.0,8.000,8.058,,12.1215,,12.1218,,12.1217,32.8195,,32.8253,32.8180,,32.8200,32.8227,5.9616,,6.2393,6.1441,5.8613,,6.2233,6.1836,6.1639,259.784,272.2021,218.2460,255.415,289.3363,218.8817,218.5639,0.0725,,0.3459,, ,, , ,24.8734,,24.8722,,0.9029,79.7940,,,,2.1032E+03,,2.5004E+00,,12.1205,12.1207,0.0127,307.025,97.418,95.779,,,,,,,,,,,,
CalCOFI,2101RL,078,,2101_078d,03-Feb-2021 21:04:18,03-Feb-2021 13:04:18,35.21499,-123.77973,070.0 080.0,070.0,080.0,9.000,9.066,,12.1172,,12.1163,,12.1168,32.8195,,32.8253,32.8181,,32.8201,32.8227,5.9674,,6.2454,6.1502,5.8631,,6.2252,6.1855,6.1679,260.036,272.4659,218.4399,255.492,289.6165,218.9421,218.6910,0.0753,,0.3688,, ,, , ,24.8742,,24.8733,,0.9011,79.8302,,,,2.1027E+03,,2.2903E+00,,12.1160,12.1152,0.0158,306.968,97.504,95.798,,,,,,,,,,,,
CalCOFI,2101RL,078,,2101_078d,03-Feb-2021 21:04:22,03-Feb-2021 13:04:22,35.21498,-123.77974,070.0 080.0,070.0,080.0,10.000,10.073,,12.1102,,12.1117,,12.1110,32.8196,,32.8254,32.8181,,32.8201,32.8228,5.9725,,6.2507,6.1555,5.8523,,6.2137,6.1740,6.1648,260.256,272.6962,218.6091,255.023,289.8612,218.5740,218.5916,0.0826,,0.4286,, ,, , ,24.8756,,24.8742,,0.9039,79.7734,,,,2.1127E+03,,2.1609E+00,,12.1090,12.1105,0.0189,306.863,97.573,95.613,10,,32.8186,6.238,272.28,,,,,,,
CalCOFI,2101RL,078,,2101_078d,03-Feb-2021 21:04:24,03-Feb-2021 13:04:24,35.21498,-123.77976,070.0 080.0,070.0,080.0,11.000,11.081,,12.1096,,12.1100,,12.1098,32.8196,,32.8254,32.8183,,32.8203,32.8229,5.9677,,6.2457,6.1505,5.8687,,6.2311,6.1915,6.1710,260.050,272.4805,218.4506,255.736,289.6321,219.1337,218.7922,0.0959,,0.5376,, ,, , ,24.8758,,24.8746,,0.9047,79.7576,,,,2.1051E+03,,1.9391E+00,,12.1082,12.1086,0.0220,306.870,97.494,95.877,,,,,,,,,,,,
CalCOFI,2101RL,078,,2101_078d,03-Feb-2021 21:04:27,03-Feb-2021 13:04:27,35.21498,-123.77978,070.0 080.0,070.0,080.0,12.000,12.088,,12.1115,,12.1127,,12.1121,32.8194,,32.8252,32.8180,,32.8200,32.8226,5.9665,,6.2444,6.1492,5.8502,,6.2115,6.1717,6.1605,259.995,272.4230,218.4083,254.930,289.5709,218.5009,218.4546,0.1079,,0.6359,, ,, , ,24.8753,,24.8740,,0.9057,79.7370,,,,2.1071E+03,,1.7763E+00,,12.1100,12.1111,0.0251,306.938,97.477,95.580,,,,,,,,,,,,
CalCOFI,2101RL,078,,2101_078d,03-Feb-2021 21:04:29,03-Feb-2021 13:04:29,35.21498,-123.77979,070.0 080.0,070.0,080.0,13.000,13.095,,12.1088,,12.1082,,12.1085,32.8196,,32.8254,32.8184,,32.8204,32.8229,5.9528,,6.2301,6.1350,5.8525,,6.2139,6.1742,6.1546,259.399,271.7991,217.9498,255.030,288.9082,218.5795,218.2647,0.1091,,0.6458,, ,, , ,24.8760,,24.8751,,0.9030,79.7926,,,,2.1101E+03,,1.6825E+00,,12.1071,12.1066,0.0282,306.896,97.248,95.609,,,,,,,,,,,,
CalCOFI,2101RL,078,,2101_078d,03-Feb-2021 21:04:37,03-Feb-2021 13:04:37,35.21496,-123.77983,070.0 080.0,070.0,080.0,14.000,14.103,,12.1146,,12.1146,,12.1146,32.8195,,32.8253,32.8181,,32.8201,32.8227,5.9658,,6.2437,6.1485,5.8530,,6.2145,6.1747,6.1616,259.965,272.3916,218.3852,255.051,289.5376,218.5959,218.4906,0.1118,,0.6679,, ,, , ,24.8748,,24.8737,,0.9033,79.7858,,,,2.1060E+03,,1.4088E+00,,12.1128,12.1129,0.0315,307.038,97.472,95.629,,,,,,,,,,,,
CalCOFI,2101RL,078,,2101_078d,03-Feb-2021 21:04:46,03-Feb-2021 13:04:46,35.21496,-123.77986,070.0 080.0,070.0,080.0,15.000,15.110,,12.1060,,12.1029,,12.1045,32.8206,,32.8264,32.8196,,32.8216,32.8240,5.9590,,6.2366,6.1414,5.8471,,6.2082,6.1684,6.1549,259.667,272.0796,218.1560,254.792,289.2062,218.3926,218.2743,0.1126,,0.6745,, ,, , ,24.8773,,24.8771,,0.9037,79.7773,,,,2.1056E+03,,1.1595E+00,,12.1041,12.1010,0.0347,306.824,97.344,95.509,,,,,,,,,,,,
CalCOFI,2101RL,078,,2101_078d,03-Feb-2021 21:04:52,03-Feb-2021 13:04:52,35.21494,-123.77989,070.0 080.0,070.0,080.0,16.000,16.117,,12.1113,,12.1119,,12.1116,32.8200,,32.8258,32.8186,,32.8206,32.8232,5.9555,,6.2329,6.1378,5.8448,,6.2058,6.1660,6.1519,259.517,271.9226,218.0406,254.693,289.0394,218.3149,218.1778,0.1234,,0.7630,, ,, , ,24.8758,,24.8747,,0.9040,79.7709,,,,2.1065E+03,,1.0184E+00,,12.1093,12.1099,0.0378,306.986,97.298,95.490,,,,,,,,,,,,
CalCOFI,2101RL,078,,2101_078d,03-Feb-2021 21:04:58,03-Feb-2021 13:04:58,35.21494,-123.77992,070.0 080.0,070.0,080.0,17.000,17.125,,12.1000,,12.0991,,12.0996,32.8212,,32.8270,32.8200,,32.8220,32.8245,5.9528,,6.2301,6.1350,5.8423,,6.2031,6.1633,6.1492,259.400,271.8001,217.9505,254.584,288.9093,218.2293,218.0899,0.1316,,0.8301,, ,, , ,24.8790,,24.8782,,0.9033,79.7864,,,,2.1053E+03,,9.2480E-01,,12.0978,12.0970,0.0410,306.710,97.232,95.424,,,,,,,,,,,,
CalCOFI,2101RL,078,,2101_078d,03-Feb-2021 21:05:02,03-Feb-2021 13:05:02,35.21494,-123.77993,070.0 080.0,070.0,080.0,18.000,18.132,,12.0945,,12.0946,,12.0946,32.8221,,32.8279,32.8209,,32.8229,32.8254,5.9398,,6.2165,6.1215,5.8420,,6.2028,6.1630,6.1423,258.833,271.2066,217.5143,254.569,288.2788,218.2176,217.8660,0.1425,,0.9195,, ,, , ,24.8807,,24.8798,,0.9066,79.7207,,,,2.1008E+03,,8.2510E-01,,12.0922,12.0923,0.0443,306.575,97.009,95.410,,,,,,,,,,,,
CalCOFI,2101RL,078,,2101_078d,03-Feb-2021 21:05:06,03-Feb-2021 13:05:06,35.21493,-123.77995,070.0 080.0,070.0,080.0,19.000,19.139,,12.0850,,12.0854,,12.0852,32.8243,,32.8301,32.8231,,32.8251,32.8276,5.9448,,6.2217,6.1267,5.8307,,6.1908,6.1509,6.1388,259.047,271.4306,217.6789,254.076,288.5167,217.8306,217.7548,0.1353,,0.8605,, ,, , ,24.8842,,24.8832,,0.9034,79.7845,,,,2.1044E+03,,7.6827E-01,,12.0826,12.0830,0.0473,306.259,97.072,95.209,,,,,,,,,,,,
CalCOFI,2101RL,078,,2101_078d,03-Feb-2021 21:05:12,03-Feb-2021 13:05:12,35.21492,-123.77997,070.0 080.0,070.0,080.0,20.000,20.147,,12.0746,,12.0759,,12.0753,32.8277,,32.8335,32.8259,,32.8279,32.8307,5.8809,,6.1548,6.0603,5.7865,,6.1438,6.1037,6.0820,256.264,268.5174,215.5377,252.148,285.4220,216.3171,215.9274,0.1414,,0.9104,, ,, , ,24.8888,,24.8872,,0.8993,79.8664,,,,2.1078E+03,,7.0798E-01,,12.0721,12.0733,0.0504,305.850,96.010,94.469,20,,32.8766,, ,,,,,,,
CalCOFI,2101RL,078,,2101_078d,03-Feb-2021 21:05:14,03-Feb-2021 13:05:14,35.21490,-123.78000,070.0 080.0,070.0,080.0,21.000,21.154,,12.0530,,12.0518,,12.0524,32.8365,,32.8423,32.8358,,32.8378,32.8401,5.8594,,6.1323,6.0379,5.7710,,6.1274,6.0872,6.0626,255.325,267.5344,214.8152,251.471,284.3778,215.7856,215.3004,0.1424,,0.9186,, ,, , ,24.8997,,24.8994,,0.8942,79.9679,,,,2.1052E+03,,6.3285E-01,,12.0503,12.0491,0.0537,304.834,95.621,94.175,,,,,,,,,,,,
CalCOFI,2101RL,078,,2101_078d,03-Feb-2021 21:05:18,03-Feb-2021 13:05:18,35.21490,-123.78002,070.0 080.0,070.0,080.0,22.000,22.162,,12.0043,,12.0013,,12.0028,32.8631,,32.8689,32.8637,,32.8657,32.8673,5.7718,,6.0407,5.9468,5.6857,,6.0368,5.9961,5.9715,251.499,263.5294,211.8715,247.748,280.1232,212.8630,212.3673,0.1517,,0.9948,, ,, , ,24.9295,,24.9306,,0.8905,80.0413,,,,2.1027E+03,,5.9425E-01,,12.0015,11.9985,0.0571,302.023,94.111,92.701,,,,,,,,,,,,
CalCOFI,2101RL,078,,2101_078d,03-Feb-2021 21:05:21,03-Feb-2021 13:05:21,35.21490,-123.78004,070.0 080.0,070.0,080.0,23.000,23.169,,11.9792,,11.9781,,11.9787,32.8809,,32.8867,32.8805,,32.8825,32.8846,5.7712,,6.0400,5.9462,5.6735,,6.0238,5.9831,5.9647,251.469,263.4979,211.8484,247.212,280.0899,212.4423,212.1454,0.1395,,0.8949,, ,, , ,24.9481,,24.9480,,0.8744,80.3655,,,,2.1064E+03,,5.2177E-01,,11.9763,11.9752,0.0602,300.280,94.062,92.467,,,,,,,,,,,,
CalCOFI,2101RL,078,,2101_078d,03-Feb-2021 21:05:25,03-Feb-2021 13:05:25,35.21490,-123.78005,070.0 080.0,070.0,080.0,24.000,24.176,,11.9201,,11.9168,,11.9185,32.9320,,32.9378,32.9338,,32.9358,32.9368,5.7330,,6.0001,5.9065,5.6394,,5.9876,5.9467,5.9266,249.792,261.7425,210.5581,245.712,278.2250,211.2648,210.9115,0.1281,,0.8015,, ,, , ,24.9988,,25.0008,,0.8657,80.5401,,,,2.1074E+03,,4.9866E-01,,11.9171,11.9137,0.0634,295.478,93.353,91.823,,,,,,,,,,,,
CalCOFI,2101RL,078,,2101_078d,03-Feb-2021 21:05:26,03-Feb-2021 13:05:26,35.21490,-123.78008,070.0 080.0,070.0,080.0,25.000,25.184,,11.8593,,11.8586,,11.8590,32.9837,,32.9895,32.9830,,32.9850,32.9873,5.7664,,6.0350,5.9412,5.6743,,6.0247,5.9840,5.9626,251.236,263.2540,211.6692,247.219,279.8308,212.4478,212.0585,0.1380,,0.8826,, ,, , ,25.0503,,25.0498,,0.8660,80.5333,,,,2.0982E+03,,3.8596E-01,,11.8562,11.8554,0.0663,290.598,93.808,92.306,,,,,,,,,,,,
CalCOFI,2101RL,078,,2101_078d,03-Feb-2021 21:05:29,03-Feb-2021 13:05:29,35.21490,-123.78008,070.0 080.0,070.0,080.0,26.000,26.191,,11.8287,,11.8274,,11.8281,33.0033,,33.0091,33.0021,,33.0041,33.0066,5.8054,,6.0758,5.9818,5.6916,,6.0430,6.0024,5.9921,252.927,265.0242,212.9702,247.970,281.7112,213.0373,213.0038,0.1548,,1.0202,, ,, , ,25.0712,,25.0705,,0.8779,80.2938,,,,2.1094E+03,,3.8656E-01,,11.8254,11.8241,0.0693,288.631,94.392,92.539,,,,,,,,,,,,
CalCOFI,2101RL,078,,2101_078d,03-Feb-2021 21:05:32,03-Feb-2021 13:05:32,35.21490,-123.78008,070.0 080.0,070.0,080.0,27.000,27.199,,11.7979,,11.7931,,11.7955,33.0069,,33.0127,33.0067,,33.0087,33.0107,5.8866,,6.1608,6.0662,5.7600,,6.1157,6.0754,6.0708,256.464,268.7267,215.6916,250.948,285.6444,215.3751,215.5334,0.1820,,1.2431,, ,, , ,25.0797,,25.0804,,0.8911,80.0294,,,,2.1087E+03,,3.4146E-01,,11.7945,11.7897,0.0722,287.846,95.653,93.586,,,,,,,,,,,,
CalCOFI,2101RL,078,,2101_078d,03-Feb-2021 21:05:35,03-Feb-2021 13:05:35,35.21490,-123.78009,070.0 080.0,070.0,080.0,28.000,28.206,,11.7355,,11.7333,,11.7344,33.0167,,33.0225,33.0160,,33.0180,33.0203,5.8651,,6.1383,6.0438,5.7578,,6.1134,6.0731,6.0585,255.523,267.7417,214.9676,250.848,284.5980,215.2966,215.1321,0.1978,,1.3726,, ,, , ,25.0989,,25.0988,,0.9094,79.6641,,,,2.1068E+03,,2.3771E-01,,11.7320,11.7298,0.0751,286.041,95.184,93.438,,,,,,,,,,,,
CalCOFI,2101RL,078,,2101_078d,03-Feb-2021 21:05:37,03-Feb-2021 13:05:37,35.21490,-123.78010,070.0 080.0,070.0,080.0,29.000,29.214,,11.7376,,11.7386,,11.7381,33.0307,,33.0365,33.0300,,33.0320,33.0343,5.8070,,6.0775,5.9834,5.7094,,6.0620,6.0214,6.0024,252.987,265.0870,213.0164,248.738,281.7779,213.6402,213.3283,0.2121,,1.4898,, ,, , ,25.1094,,25.1086,,0.9129,79.5941,,,,2.1111E+03,,1.8490E-01,,11.7339,11.7349,0.0779,285.067,94.253,92.671,,,,,,,,,,,,
CalCOFI,2101RL,078,,2101_078d,03-Feb-2021 21:05:40,03-Feb-2021 13:05:40,35.21488,-123.78010,070.0 080.0,070.0,080.0,30.000,30.221,,11.7314,,11.7264,,11.7289,33.0502,,33.0560,33.0528,,33.0548,33.0554,5.7859,,6.0554,5.9615,5.6936,,6.0452,6.0046,5.9831,252.066,264.1229,212.3078,248.042,280.7537,213.0938,212.7008,0.1791,,1.2194,, ,, , ,25.1257,,25.1286,,0.8958,79.9364,,,,2.1119E+03,,1.0314E-01,,11.7277,11.7226,0.0808,283.535,93.911,92.403,,,,,,,,,,,,
CalCOFI,2101RL,078,,2101_078d,03-Feb-2021 21:05:42,03-Feb-2021 13:05:42,35.21488,-123.78010,070.0 080.0,070.0,080.0,31.000,31.228,,11.7000,,11.6995,,11.6998,33.0681,,33.0739,33.0671,,33.0691,33.0715,5.7902,,6.0599,5.9660,5.6847,,6.0357,5.9951,5.9806,252.245,264.3103,212.4455,247.651,280.9528,212.7869,212.6162,0.1696,,1.1415,, ,, , ,25.1454,,25.1447,,0.8795,80.2616,,,,2.1138E+03,,8.1662E-02,,11.6961,11.6956,0.0836,281.682,93.928,92.215,,,,,,,,,,,,
CalCOFI,2101RL,078,,2101_078d,03-Feb-2021 21:05:44,03-Feb-2021 13:05:44,35.21488,-123.78010,070.0 080.0,070.0,080.0,32.000,32.236,,11.6834,,11.6820,,11.6827,33.0755,,33.0813,33.0748,,33.0768,33.0791,5.7980,,6.0681,5.9741,5.6930,,6.0445,6.0039,5.9890,252.583,264.6641,212.7055,248.012,281.3287,213.0703,212.8879,0.1751,,1.1866,, ,, , ,25.1543,,25.1540,,0.8757,80.3383,,,,2.1112E+03,,1.4781E-03,,11.6794,11.6780,0.0865,280.864,94.025,92.320,,,,,,,,,,,,
CalCOFI,2101RL,078,,2101_078d,03-Feb-2021 21:05:46,03-Feb-2021 13:05:46,35.21488,-123.78008,070.0 080.0,070.0,080.0,33.000,33.243,,11.6621,,11.6616,,11.6619,33.0826,,33.0884,33.0816,,33.0836,33.0860,5.7902,,6.0599,5.9660,5.6955,,6.0472,6.0066,5.9863,252.244,264.3092,212.4447,248.119,280.9517,213.1543,212.7995,0.1642,,1.0973,, ,, , ,25.1637,,25.1630,,0.8724,80.4044,,,,2.1102E+03,,2.4645E-04,,11.6580,11.6574,0.0893,279.988,93.862,92.326,,,,,,,,,,,,
CalCOFI,2101RL,078,,2101_078d,03-Feb-2021 21:05:49,03-Feb-2021 13:05:49,35.21488,-123.78006,070.0 080.0,070.0,080.0,34.000,34.251,,11.6544,,11.6542,,11.6543,33.0863,,33.0921,33.0853,,33.0873,33.0897,5.7849,,6.0544,5.9605,5.6774,,6.0280,5.9873,5.9739,252.013,264.0674,212.2670,247.327,280.6948,212.5325,212.3998,0.1657,,1.1096,, ,, , ,25.1680,,25.1673,,0.8725,80.4034,,,,2.1172E+03,,1.0000E-12,,11.6502,11.6500,0.0921,279.602,93.763,92.019,,,,,,,,,,,,
CalCOFI,2101RL,078,,2101_078d,03-Feb-2021 21:05:51,03-Feb-2021 13:05:51,35.21488,-123.78007,070.0 080.0,070.0,080.0,35.000,35.258,,11.6469,,11.6467,,11.6468,33.0942,,33.1000,33.0932,,33.0952,33.0976,5.7778,,6.0469,5.9531,5.6673,,6.0172,5.9765,5.9648,251.698,263.7377,212.0246,246.888,280.3445,212.1879,212.1063,0.1720,,1.1612,, ,, , ,25.1755,,25.1748,,0.8704,80.4448,,,,2.1153E+03,,1.0000E-12,,11.6425,11.6423,0.0949,278.912,93.637,91.846,,,,,,,,,,,,
CalCOFI,2101RL,078,,2101_078d,03-Feb-2021 21:05:53,03-Feb-2021 13:05:53,35.21488,-123.78008,070.0 080.0,070.0,080.0,36.000,36.266,,11.6425,,11.6424,,11.6425,33.0984,,33.1042,33.0975,,33.0995,33.1019,5.7593,,6.0276,5.9339,5.6595,,6.0090,5.9682,5.9511,250.893,262.8950,211.4052,246.546,279.4494,211.9195,211.6624,0.1620,,1.0792,, ,, , ,25.1797,,25.1790,,0.8659,80.5348,,,,2.1136E+03,,1.0000E-12,,11.6380,11.6378,0.0977,278.543,93.331,91.714,,,,,,,,,,,,
CalCOFI,2101RL,078,,2101_078d,03-Feb-2021 21:05:55,03-Feb-2021 13:05:55,35.21488,-123.78011,070.0 080.0,070.0,080.0,37.000,37.273,,11.6332,,11.6330,,11.6331,33.1112,,33.1170,33.1104,,33.1124,33.1147,5.7541,,6.0221,5.9284,5.6462,,5.9948,5.9540,5.9412,250.665,262.6563,211.2298,245.962,279.1958,211.4610,211.3454,0.1516,,0.9940,, ,, , ,25.1914,,25.1908,,0.8613,80.6278,,,,2.1149E+03,,1.0000E-12,,11.6286,11.6283,0.1005,277.457,93.237,91.487,,,,,,,,,,,,
CalCOFI,2101RL,078,,2101_078d,03-Feb-2021 21:05:57,03-Feb-2021 13:05:57,35.21488,-123.78012,070.0 080.0,070.0,080.0,38.000,38.281,,11.6287,,11.6288,,11.6288,33.1170,,33.1228,33.1158,,33.1178,33.1203,5.7445,,6.0121,5.9185,5.6446,,5.9931,5.9522,5.9354,250.244,262.2156,210.9059,245.893,278.7277,211.4069,211.1564,0.1435,,0.9277,, ,, , ,25.1967,,25.1958,,0.8549,80.7575,,,,2.1188E+03,,1.0000E-12,,11.6240,11.6240,0.1033,276.975,93.075,91.456,,,,,,,,,,,,
CalCOFI,2101RL,078,,2101_078d,03-Feb-2021 21:05:59,03-Feb-2021 13:05:59,35.21488,-123.78012,070.0 080.0,070.0,080.0,39.000,39.288,,11.6239,,11.6241,,11.6240,33.1269,,33.1327,33.1263,,33.1283,33.1305,5.7321,,5.9991,5.9056,5.6477,,5.9964,5.9556,5.9306,249.702,261.6483,210.4889,246.026,278.1249,211.5113,211.0001,0.1546,,1.0186,, ,, , ,25.2053,,25.2048,,0.8459,80.9383,,,,2.1151E+03,,1.0000E-12,,11.6190,11.6192,0.1061,276.176,92.871,91.503,,,,,,,,,,,,
CalCOFI,2101RL,078,,2101_078d,03-Feb-2021 21:06:00,03-Feb-2021 13:06:00,35.21488,-123.78012,070.0 080.0,070.0,080.0,40.000,40.296,,11.6240,,11.6241,,11.6241,33.1353,,33.1411,33.1343,,33.1363,33.1387,5.7382,,6.0055,5.9119,5.6323,,5.9801,5.9391,5.9255,249.966,261.9246,210.6920,245.353,278.4185,210.9830,210.8375,0.1395,,0.8949,, ,, , ,25.2119,,25.2110,,0.8396,81.0655,,,,2.1133E+03,,1.0000E-12,,11.6190,11.6191,0.1089,275.578,92.975,91.259,,,,,,,,,,,,
CalCOFI,2101RL,078,,2101_078d,03-Feb-2021 21:06:04,03-Feb-2021 13:06:04,35.21488,-123.78012,070.0 080.0,070.0,080.0,41.000,41.303,,11.6237,,11.6243,,11.6240,33.1437,,33.1495,33.1428,,33.1448,33.1472,5.7105,,5.9765,5.8831,5.6025,,5.9484,5.9073,5.8952,248.759,260.6611,209.7634,244.054,277.0763,209.9632,209.8633,0.1357,,0.8637,, ,, , ,25.2184,,25.2176,,0.8313,81.2351,,,,2.1195E+03,,1.0000E-12,,11.6186,11.6191,0.1117,274.978,92.531,90.781,,,,,,,,,,,,
CalCOFI,2101RL,078,,2101_078d,03-Feb-2021 21:06:05,03-Feb-2021 13:06:05,35.21488,-123.78012,070.0 080.0,070.0,080.0,42.000,42.311,,11.6262,,11.6263,,11.6263,33.1532,,33.1590,33.1521,,33.1541,33.1566,5.6856,,5.9504,5.8572,5.5972,,5.9428,5.9016,5.8794,247.673,259.5243,208.9278,243.822,275.8687,209.7811,209.3545,0.1268,,0.7908,, ,, , ,25.2254,,25.2245,,0.8307,81.2472,,,,2.1152E+03,,1.0000E-12,,11.6210,11.6210,0.1144,274.341,92.138,90.705,,,,,,,,,,,,
CalCOFI,2101RL,078,,2101_078d,03-Feb-2021 21:06:07,03-Feb-2021 13:06:07,35.21488,-123.78012,070.0 080.0,070.0,080.0,43.000,43.318,,11.6171,,11.6165,,11.6168,33.1582,,33.1640,33.1572,,33.1592,33.1616,5.6803,,5.9449,5.8517,5.5915,,5.9367,5.8956,5.8737,247.440,259.2804,208.7485,243.569,275.6096,209.5825,209.1655,0.1299,,0.8162,, ,, , ,25.2310,,25.2303,,0.8259,81.3454,,,,2.1137E+03,,1.0000E-12,,11.6117,11.6112,0.1172,273.835,92.037,90.595,,,,,,,,,,,,
CalCOFI,2101RL,078,,2101_078d,03-Feb-2021 21:06:09,03-Feb-2021 13:06:09,35.21488,-123.78014,070.0 080.0,070.0,080.0,44.000,44.326,,11.6048,,11.6046,,11.6047,33.1626,,33.1684,33.1616,,33.1636,33.1660,5.6623,,5.9261,5.8330,5.5713,,5.9153,5.8740,5.8535,246.653,258.4566,208.1430,242.692,274.7344,208.8941,208.5186,0.1186,,0.7236,, ,, , ,25.2367,,25.2359,,0.8245,81.3732,,,,2.1158E+03,,1.0000E-12,,11.5993,11.5991,0.1200,273.313,91.723,90.249,,,,,,,,,,,,
CalCOFI,2101RL,078,,2101_078d,03-Feb-2021 21:06:11,03-Feb-2021 13:06:11,35.21488,-123.78014,070.0 080.0,070.0,080.0,45.000,45.333,,11.5974,,11.5975,,11.5975,33.1691,,33.1749,33.1680,,33.1700,33.1725,5.6493,,5.9125,5.8195,5.5482,,5.8907,5.8493,5.8344,246.085,257.8620,207.7060,241.683,274.1028,208.1020,207.9040,0.1092,,0.6466,, ,, , ,25.2431,,25.2422,,0.8276,81.3113,,,,2.1196E+03,,1.0000E-12,,11.5917,11.5919,0.1227,272.727,91.502,89.865,,,,,,,,,,,,
CalCOFI,2101RL,078,,2101_078d,03-Feb-2021 21:06:12,03-Feb-2021 13:06:12,35.21486,-123.78016,070.0 080.0,070.0,080.0,46.000,46.341,,11.5992,,11.5993,,11.5993,33.1789,,33.1847,33.1781,,33.1801,33.1824,5.6434,,5.9063,5.8134,5.5328,,5.8744,5.8329,5.8232,245.828,257.5930,207.5082,241.008,273.8170,207.5721,207.5402,0.1023,,0.5901,, ,, , ,25.2504,,25.2497,,0.8156,81.5543,,,,2.1150E+03,,1.0000E-12,,11.5935,11.5936,0.1255,272.055,91.416,89.624,,,,,,,,,,,,
CalCOFI,2101RL,078,,2101_078d,03-Feb-2021 21:06:15,03-Feb-2021 13:06:15,35.21487,-123.78016,070.0 080.0,070.0,080.0,47.000,47.348,,11.5866,,11.5856,,11.5861,33.1865,,33.1923,33.1855,,33.1875,33.1899,5.6384,,5.9010,5.8082,5.5137,,5.8541,5.8125,5.8104,245.609,257.3637,207.3397,240.177,273.5735,206.9198,207.1298,0.0957,,0.5360,, ,, , ,25.2586,,25.2581,,0.8024,81.8248,,,,2.1173E+03,,1.0000E-12,,11.5807,11.5797,0.1282,271.298,91.315,89.294,,,,,,,,,,,,
CalCOFI,2101RL,078,,2101_078d,03-Feb-2021 21:06:17,03-Feb-2021 13:06:17,35.21488,-123.78016,070.0 080.0,070.0,080.0,48.000,48.356,,11.5757,,11.5757,,11.5757,33.1894,,33.1952,33.1882,,33.1902,33.1927,5.6384,,5.9010,5.8082,5.5061,,5.8460,5.8044,5.8063,245.606,257.3606,207.3374,239.844,273.5701,206.6584,206.9979,0.1035,,0.5999,, ,, , ,25.2629,,25.2620,,0.8005,81.8630,,,,2.1168E+03,,1.0000E-12,,11.5697,11.5697,0.1309,270.915,91.296,89.153,,,,,,,,,,,,
CalCOFI,2101RL,078,,2101_078d,03-Feb-2021 21:06:18,03-Feb-2021 13:06:18,35.21486,-123.78016,070.0 080.0,070.0,080.0,49.000,49.363,,11.5736,,11.5741,,11.5739,33.1922,,33.1980,33.1911,,33.1931,33.1956,5.6483,,5.9114,5.8185,5.5091,,5.8492,5.8076,5.8131,246.037,257.8117,207.6690,239.974,274.0494,206.7604,207.2147,0.1049,,0.6114,, ,, , ,25.2655,,25.2645,,0.8011,81.8514,,,,2.1134E+03,,1.0000E-12,,11.5675,11.5680,0.1337,270.689,91.454,89.200,,,,,,,,,,,,
CalCOFI,2101RL,078,,2101_078d,03-Feb-2021 21:06:20,03-Feb-2021 13:06:20,35.21487,-123.78017,070.0 080.0,070.0,080.0,50.000,50.371,,11.5745,,11.5748,,11.5747,33.1940,,33.1998,33.1929,,33.1949,33.1974,5.6454,,5.9084,5.8155,5.5192,,5.8599,5.8184,5.8170,245.909,257.6777,207.5706,240.412,273.9071,207.1042,207.3374,0.1040,,0.6040,, ,, , ,25.2668,,25.2658,,0.8012,81.8496,,,,2.1186E+03,,1.0000E-12,,11.5682,11.5685,0.1364,270.596,91.409,89.365,50,,33.2129,5.800,253.12,,,,,,,
CalCOFI,2101RL,078,,2101_078d,03-Feb-2021 21:06:23,03-Feb-2021 13:06:23,35.21488,-123.78020,070.0 080.0,070.0,080.0,51.000,51.378,,11.5775,,11.5782,,11.5779,33.1978,,33.2036,33.1967,,33.1987,33.2012,5.6282,,5.8904,5.7976,5.5089,,5.8490,5.8074,5.8025,245.160,256.8937,206.9943,239.965,273.0742,206.7533,206.8738,0.0996,,0.5679,, ,, , ,25.2692,,25.2682,,0.7964,81.9472,,,,2.1197E+03,,1.0000E-12,,11.5712,11.5718,0.1391,270.389,91.139,89.208,,,,,,,,,,,,
CalCOFI,2101RL,078,,2101_078d,03-Feb-2021 21:06:24,03-Feb-2021 13:06:24,35.21488,-123.78019,070.0 080.0,070.0,080.0,52.000,52.386,,11.5887,,11.5895,,11.5891,33.2074,,33.2132,33.2064,,33.2084,33.2108,5.6265,,5.8886,5.7958,5.5068,,5.8468,5.8051,5.8005,245.083,256.8131,206.9350,239.873,272.9885,206.6811,206.8081,0.1000,,0.5712,, ,, , ,25.2746,,25.2737,,0.7975,81.9242,,,,2.1125E+03,,1.0000E-12,,11.5822,11.5830,0.1418,269.900,91.138,89.201,,,,,,,,,,,,
CalCOFI,2101RL,078,,2101_078d,03-Feb-2021 21:06:26,03-Feb-2021 13:06:26,35.21488,-123.78018,070.0 080.0,070.0,080.0,53.000,53.393,,11.5902,,11.5901,,11.5902,33.2121,,33.2179,33.2110,,33.2130,33.2155,5.6203,,5.8821,5.7894,5.5020,,5.8417,5.8000,5.7947,244.816,256.5336,206.7296,239.659,272.6916,206.5131,206.6214,0.0930,,0.5139,, ,, , ,25.2780,,25.2772,,0.7976,81.9231,,,,2.1122E+03,,1.0000E-12,,11.5835,11.5834,0.1445,269.598,91.044,89.126,,,,,,,,,,,,
CalCOFI,2101RL,078,,2101_078d,03-Feb-2021 21:06:29,03-Feb-2021 13:06:29,35.21488,-123.78018,070.0 080.0,070.0,080.0,54.000,54.401,,11.5856,,11.5856,,11.5856,33.2136,,33.2194,33.2123,,33.2143,33.2169,5.6189,,5.8806,5.7879,5.5076,,5.8476,5.8060,5.7970,244.752,256.4666,206.6804,239.904,272.6205,206.7055,206.6930,0.0891,,0.4819,, ,, , ,25.2800,,25.2790,,0.7967,81.9418,,,,2.1172E+03,,1.0000E-12,,11.5789,11.5788,0.1473,269.432,91.013,89.209,,,,,,,,,,,,